You are listening to:
VTSS Approach - Songkhla, Thailand

VTSS 121730Z VRB01KT 9999 FEW020 26/24 Q1010 NOSIG

If stream doesn't start automatically press the play button
If stream stops then reload player then press play